Regional Weather Roundup
Issued by NWS

Home | Current Version | Previous Version | Text Only | Print | Product List | Glossary Off
Versions: 1 2 3 4 5 6 7 8 9 10 11 12 13 14 15 16 17 18 19 20 21 22 23 24 25 26 27 28 29 30 31 32 33 34 35 36 37 38 39 40 41 42 43 44 45 46 47 48 49 50

000
ASUS45 KCYS 021610
RWRWY

WYOMING REGIONAL WEATHER ROUNDUP
NATIONAL WEATHER SERVICE CHEYENNE WY
1000 AM MDT TUE SEP 02 2014

NOTE:  "FAIR" INDICATES FEW OR NO CLOUDS BELOW 12,000 FEET
WITH NO SIGNIFICANT WEATHER AND/OR OBSTRUCTIONS TO VISIBILITY.

WYZ001-021700-
YELLOWSTONE NATIONAL PARK

CITY           SKY/WX    TMP DP  RH WIND       PRES   REMARKS
LK YELLOWSTONE   N/A     52  37  56 S5        30.20S
W YELLOWSTONE  NOT AVBL

$$
WYZ002>013-054>058-071-098>099-021700-
NORTHERN WYOMING

CITY           SKY/WX    TMP DP  RH WIND       PRES   REMARKS
JACKSON        SUNNY     48  37  66 CALM      30.15F
CODY             N/A    N/A N/A N/A MISG        N/A
GREYBULL       SUNNY    N/A N/A N/A MISG      29.97F
WORLAND        SUNNY     62  46  55 W5        29.96F
SHERIDAN       MOSUNNY   63  46  54 VRB5      29.95R
BUFFALO        SUNNY     63  40  42 SE8       29.98F
GILLETTE       MOSUNNY   66  47  50 SW14      29.96F
HULETT         FAIR      68  43  40 MISG      29.97
NEWCASTLE      FAIR      63  39  42 S7        30.01

$$
WYZ014>020-022>026-101>103-021700-
CENTRAL WYOMING

CITY           SKY/WX    TMP DP  RH WIND       PRES   REMARKS
BIG PINEY      SUNNY     51  35  54 VRB5      30.21F
PINEDALE       SUNNY     54  34  47 E3        30.22S
DUBOIS         FAIR      59  30  33 N9G21     30.13S
LANDER         SUNNY     64  33  31 SE7       30.05F
RIVERTON       SUNNY     60  32  34 S9        30.06F
CASPER         SUNNY     66  34  30 SW17G26   30.05F
DOUGLAS        SUNNY     59  44  57 NW3       30.05F

$$
WYZ021-027>030-104>119-021700-
SOUTHERN WYOMING

CITY           SKY/WX    TMP DP  RH WIND       PRES   REMARKS
EVANSTON       SUNNY     60  31  33 SW3       30.20S
KEMMERER       SUNNY     57  36  44 N5        30.22S
FORT BRIDGER   FAIR      60  32  34 E5        30.22F
ROCK SPRINGS   SUNNY     60  32  34 CALM      30.20F
DIXON          FAIR      59  38  46 S3        30.24S
RAWLINS        SUNNY     64  30  27 SW17G25   30.18F
SARATOGA       FAIR      61  32  33 SE7       30.22F
LARAMIE        SUNNY     64  35  34 W12       30.19F
CHEYENNE       SUNNY     65  41  41 SW10      30.14F
TORRINGTON     SUNNY     65  50  58 N5        30.02F
PINE BLUFFS    FAIR      66  45  45 SW8       30.11F

$$


USA.gov is the U.S. government's official web portal to all federal, state and local government web resources and services.